TimeEST,TemperatureF,Dew PointF,Humidity,Sea Level PressureIn,VisibilityMPH,Wind Direction,Wind SpeedMPH,Gust SpeedMPH,PrecipitationIn,Events,Conditions,WindDirDegrees,DateUTC
12:53 AM,28.9,28.0,96,30.04,2.5,Calm,Calm,-,N/A,,Overcast,0,2013-12-17 05:53:00
1:05 AM,30.2,28.4,93,29.99,3.0,Calm,Calm,-,N/A,,Overcast,0,2013-12-17 06:05:00
1:12 AM,30.2,28.4,93,29.99,2.5,Calm,Calm,-,N/A,,Overcast,0,2013-12-17 06:12:00
1:19 AM,28.4,28.4,100,29.99,3.0,Calm,Calm,-,N/A,,Overcast,0,2013-12-17 06:19:00
1:30 AM,28.4,28.4,100,29.98,3.0,Calm,Calm,-,N/A,,Overcast,0,2013-12-17 06:30:00
1:53 AM,30.0,28.9,96,30.03,4.0,Calm,Calm,-,N/A,,Overcast,0,2013-12-17 06:53:00
2:51 AM,33.8,28.4,81,29.98,9.0,South,3.5,-,N/A,,Overcast,190,2013-12-17 07:51:00
2:53 AM,33.1,28.9,85,30.02,9.0,South,3.5,-,N/A,,Overcast,190,2013-12-17 07:53:00
3:53 AM,37.0,30.9,79,30.00,10.0,SSW,5.8,-,N/A,,Overcast,210,2013-12-17 08:53:00
4:53 AM,37.0,30.9,79,29.98,10.0,SSW,5.8,-,N/A,,Overcast,210,2013-12-17 09:53:00
5:53 AM,37.9,30.9,76,29.99,10.0,SSW,8.1,-,N/A,,Overcast,210,2013-12-17 10:53:00
6:04 AM,37.4,32.0,81,29.95,10.0,SW,8.1,-,0.00,Rain,Light Rain,230,2013-12-17 11:04:00
6:53 AM,37.0,33.1,86,29.99,10.0,SSW,3.5,-,0.01,,Overcast,200,2013-12-17 11:53:00
7:53 AM,37.0,33.1,86,29.99,10.0,SSW,5.8,-,N/A,,Overcast,210,2013-12-17 12:53:00
8:53 AM,37.0,33.1,86,30.00,8.0,SW,3.5,-,0.00,,Overcast,220,2013-12-17 13:53:00
9:09 AM,37.4,33.8,87,29.97,8.0,SW,5.8,-,N/A,,Overcast,220,2013-12-17 14:09:00
9:53 AM,36.0,34.0,93,30.02,4.0,Calm,Calm,-,0.01,Rain,Light Rain,0,2013-12-17 14:53:00
10:29 AM,35.6,33.8,93,30.00,7.0,West,4.6,-,0.01,,Overcast,260,2013-12-17 15:29:00
10:53 AM,35.1,32.0,89,30.04,8.0,WNW,5.8,-,0.01,,Overcast,290,2013-12-17 15:53:00
11:53 AM,36.0,30.9,82,30.02,8.0,Variable,4.6,-,N/A,,Overcast,0,2013-12-17 16:53:00
12:19 PM,35.6,30.2,81,29.97,10.0,West,4.6,-,N/A,,Overcast,270,2013-12-17 17:19:00
12:53 PM,36.0,30.0,79,29.99,10.0,SW,3.5,-,N/A,,Overcast,230,2013-12-17 17:53:00
1:53 PM,36.0,30.0,79,29.98,10.0,West,4.6,-,N/A,,Overcast,270,2013-12-17 18:53:00
2:53 PM,36.0,28.9,76,29.97,10.0,Variable,4.6,-,N/A,,Overcast,0,2013-12-17 19:53:00
3:16 PM,35.6,28.4,75,29.94,10.0,Variable,4.6,-,N/A,,Overcast,0,2013-12-17 20:16:00
3:28 PM,35.6,28.4,75,29.94,10.0,Calm,Calm,-,N/A,,Overcast,0,2013-12-17 20:28:00
3:53 PM,35.1,28.0,76,29.97,10.0,Calm,Calm,-,N/A,,Overcast,0,2013-12-17 20:53:00
4:53 PM,34.0,27.0,75,29.97,10.0,SW,4.6,-,N/A,,Overcast,220,2013-12-17 21:53:00
5:36 PM,33.8,26.6,75,29.95,10.0,SSW,3.5,-,N/A,,Overcast,210,2013-12-17 22:36:00
5:46 PM,33.8,26.6,75,29.95,10.0,SSW,3.5,-,N/A,,Overcast,210,2013-12-17 22:46:00
5:53 PM,34.0,28.0,79,29.98,10.0,SSW,3.5,-,N/A,,Overcast,210,2013-12-17 22:53:00
6:53 PM,34.0,28.0,79,29.99,10.0,Calm,Calm,-,N/A,,Overcast,0,2013-12-17 23:53:00
7:33 PM,33.8,28.4,81,29.97,10.0,WSW,3.5,-,N/A,,Overcast,240,2013-12-18 00:33:00
7:41 PM,33.8,28.4,81,29.97,9.0,WSW,3.5,-,N/A,,Overcast,240,2013-12-18 00:41:00
7:53 PM,33.1,28.0,82,30.01,10.0,SW,6.9,-,N/A,,Overcast,230,2013-12-18 00:53:00
8:53 PM,32.0,25.0,75,30.02,10.0,SW,5.8,-,N/A,,Overcast,230,2013-12-18 01:53:00
9:07 PM,32.0,24.8,75,29.98,10.0,Calm,Calm,-,N/A,,Overcast,0,2013-12-18 02:07:00
9:53 PM,30.9,25.0,79,30.03,10.0,SW,5.8,-,N/A,,Overcast,220,2013-12-18 02:53:00
10:22 PM,30.2,24.8,80,30.02,10.0,Variable,3.5,-,N/A,,Overcast,0,2013-12-18 03:22:00
10:53 PM,30.9,23.0,72,30.06,10.0,Calm,Calm,-,N/A,,Overcast,0,2013-12-18 03:53:00
11:53 PM,30.0,23.0,75,30.08,10.0,West,8.1,-,N/A,,Overcast,270,2013-12-18 04:53:00